Location: Düngen
(52.0952°N, 10.0219°E)
Time: 15:48:28
(UTC+00:00)

CENTAUR R/B - Pass Details

Date: 11 March 2026
Orbit: 625 x 1555 km, 63.4° (Epoch: 14 April)

Event Time Altitude Azimuth Distance (km) Brightness Sun altitude
Rises 22:33:17 0° 304° (NW) 3,855 6.2 -39.9°
Reaches altitude 10° 22:35:53 10° 311° (NW) 3,030 5.6 -40.0°
Maximum altitude 22:43:01 45° 23° (NNE) 1,737 3.9 -40.4°
Enters shadow 22:43:38 44° 35° (NE) 1,769 3.9 -40.4°
